TimeMST,TemperatureF,Dew PointF,Humidity,Sea Level PressureIn,VisibilityMPH,Wind Direction,Wind SpeedMPH,Gust SpeedMPH,PrecipitationIn,Events,Conditions,WindDirDegrees,DateUTC
12:53 AM,45.0,30.0,56,29.76,10.0,SW,15.0,-,N/A,,Clear,220,2012-12-02 07:53:00
1:53 AM,45.0,28.9,53,29.77,10.0,SW,19.6,-,N/A,,Clear,230,2012-12-02 08:53:00
2:53 AM,45.0,28.9,53,29.78,10.0,SW,17.3,-,N/A,,Clear,230,2012-12-02 09:53:00
3:53 AM,44.1,28.0,53,29.73,10.0,SSW,15.0,-,N/A,,Clear,210,2012-12-02 10:53:00
4:53 AM,46.0,28.0,50,29.73,10.0,SSW,18.4,28.8,N/A,,Clear,200,2012-12-02 11:53:00
5:53 AM,43.0,28.9,58,29.73,10.0,South,17.3,-,N/A,,Clear,190,2012-12-02 12:53:00
6:53 AM,43.0,28.0,56,29.68,10.0,South,18.4,-,N/A,,Clear,180,2012-12-02 13:53:00
7:53 AM,46.9,28.9,50,29.63,10.0,South,28.8,40.3,N/A,,Clear,190,2012-12-02 14:53:00
8:53 AM,48.9,28.9,46,29.51,10.0,SSW,46.0,61.0,N/A,,Clear,200,2012-12-02 15:53:00
9:53 AM,51.1,30.0,44,29.56,10.0,SSW,34.5,49.5,N/A,,Clear,200,2012-12-02 16:53:00
10:53 AM,54.0,30.0,40,29.51,10.0,SSW,36.8,55.2,N/A,,Clear,200,2012-12-02 17:53:00
11:53 AM,57.0,30.0,36,29.42,10.0,SSW,44.9,58.7,N/A,,Clear,200,2012-12-02 18:53:00
12:53 PM,57.0,28.9,34,29.43,10.0,SSW,33.4,43.7,N/A,,Clear,200,2012-12-02 19:53:00
1:53 PM,57.0,28.9,34,29.41,10.0,SSW,27.6,43.7,N/A,,Clear,200,2012-12-02 20:53:00
2:53 PM,57.9,28.9,33,29.37,10.0,SSW,31.1,41.4,N/A,,Clear,200,2012-12-02 21:53:00
3:53 PM,57.0,28.9,34,29.36,10.0,SSW,31.1,40.3,N/A,,Clear,200,2012-12-02 22:53:00
4:53 PM,55.9,28.9,36,29.31,10.0,South,35.7,47.2,N/A,,Clear,190,2012-12-02 23:53:00
5:53 PM,55.0,28.9,37,29.34,10.0,South,34.5,48.3,N/A,,Clear,190,2012-12-03 00:53:00
6:53 PM,55.9,28.9,36,29.32,10.0,SSW,41.4,50.6,N/A,,Clear,200,2012-12-03 01:53:00
7:53 PM,54.0,28.9,38,29.31,10.0,SSW,32.2,48.3,N/A,,Clear,210,2012-12-03 02:53:00
8:53 PM,53.1,30.0,41,29.32,10.0,SSW,33.4,48.3,N/A,,Clear,210,2012-12-03 03:53:00
9:53 PM,54.0,30.0,40,29.33,10.0,SW,33.4,48.3,N/A,,Clear,220,2012-12-03 04:53:00
10:53 PM,53.1,30.9,43,29.40,10.0,SW,27.6,39.1,N/A,,Clear,230,2012-12-03 05:53:00
11:20 PM,51.8,33.8,50,29.57,10.0,NW,28.8,38.0,N/A,,Mostly Cloudy,320,2012-12-03 06:20:00
11:53 PM,44.1,36.0,73,29.58,10.0,NNW,25.3,35.7,N/A,,Overcast,330,2012-12-03 06:53:00